Stations météo

réclame
Mon MeteoGroup
P11-B, Pays-Bas (6203): Température de l'air & dewpoint: 19.04.2018 10:00:00 - 25.04.2018 10:00:00 (CEST)P11-B, Pays-Bas (6203): Vitesse du vent & gusts: 19.04.2018 10:00:00 - 25.04.2018 10:00:00 (CEST)P11-B, Pays-Bas (6203): Direction du vent: 19.04.2018 10:00:00 - 25.04.2018 10:00:00 (CEST)P11-B, Pays-Bas (6203): reduced air pressure: 19.04.2018 10:00:00 - 25.04.2018 10:00:00 (CEST)P11-B, Pays-Bas (6203): visibility: 19.04.2018 10:00:00 - 25.04.2018 10:00:00 (CEST)
Date & Time tt [°C] td [°C] ff [km/h] ff [knt] fx [km/h] fx [knt] dd ppp [hPa] vv [km]
25.04.2018 10:00:00 8,7 6,7 29 16 32 18 W 1009,9 10
25.04.2018 09:00:00 8,7 7,5 28 15 32 18 W 1009,6 10
25.04.2018 08:00:00 9,0 7,3 29 16 36 19 W 1008,7 10
25.04.2018 07:00:00 8,9 7,1 37 20 43 23 W 1007,8 10
25.04.2018 06:00:00 9,2 8,0 32 18 47 25 W 1007,0 16
25.04.2018 05:00:00 9,4 8,6 37 20 65 35 W 1005,8 10
25.04.2018 04:00:00 10,3 9,5 57 31 61 33 SW 1004,7 9
25.04.2018 03:00:00 10,4 9,7 63 34 65 35 SW 1004,1 9
25.04.2018 02:00:00 10,3 9,6 61 33 61 33 SSW 1004,8 8
25.04.2018 01:00:00 10,4 9,4 61 33 61 33 SSW 1005,1 10
25.04.2018 00:00:00 10,6 9,4 59 32 61 33 SSW 1005,5 10
24.04.2018 23:00:00 10,1 9,5 54 29 54 29 SSW 1006,9 9
24.04.2018 22:00:00 9,9 9,4 57 31 61 33 SSW 1008,2 8
24.04.2018 21:00:00 9,9 9,4 61 33 65 35 SSW 1008,3 9
24.04.2018 20:00:00 9,8 9,1 57 31 61 33 SSW 1008,6 10
24.04.2018 19:00:00 9,6 9,1 44 24 50 27 SSW 1010,2 8
24.04.2018 18:00:00 9,3 9,0 35 19 36 19 SSW 1012,0 6
24.04.2018 17:00:00 9,3 8,8 31 17 32 18 SSW 1013,3 8
24.04.2018 16:00:00 9,7 8,9 35 19 32 18 SSW 1014,0 10
24.04.2018 15:00:00 9,8 9,0 39 21 40 21 SSW 1014,4 10
24.04.2018 14:00:00 9,8 8,9 39 21 40 21 SW 1014,6 10
24.04.2018 13:00:00 9,8 8,9 39 21 43 23 SW 1015,0 10
24.04.2018 12:00:00 9,8 8,8 42 23 43 23 SW 1015,2 10
24.04.2018 11:00:00 9,6 8,8 44 24 43 23 SW 1014,6 9
24.04.2018 10:00:00 9,5 8,7 41 22 43 23 SW 1014,4 10
24.04.2018 09:00:00 9,5 8,6 42 23 43 23 SW 1014,4 10
24.04.2018 08:00:00 9,6 8,4 44 24 43 23 SW 1013,6 10
24.04.2018 07:00:00 9,7 8,3 41 22 43 23 SW 1013,4 10
24.04.2018 06:00:00 9,8 8,1 42 23 43 23 SW 1013,2 9
24.04.2018 05:00:00 9,7 8,0 44 24 50 27 SW 1013,1 10
24.04.2018 04:00:00 9,9 7,7 40 21 54 29 SW 1012,9 15
24.04.2018 03:00:00 10,0 7,8 48 26 50 27 SW 1013,0 10
24.04.2018 02:00:00 9,8 8,0 50 27 50 27 SW 1012,7 10
24.04.2018 01:00:00 9,9 8,2 52 28 50 27 SW 1013,3 10
24.04.2018 00:00:00 9,9 8,4 46 25 47 25 SSW 1013,6 10
23.04.2018 23:00:00 9,5 8,3 48 26 47 25 SSW 1014,3 10
23.04.2018 22:00:00 9,4 8,0 52 28 50 27 SSW 1014,3 10
23.04.2018 21:00:00 9,6 7,8 46 25 47 25 SSW 1014,2 10
23.04.2018 20:00:00 9,5 8,1 36 19 40 21 SSW 1014,3 13
23.04.2018 19:00:00 9,4 8,3 39 21 40 21 SSW 1014,8 10
23.04.2018 18:00:00 9,6 8,3 29 16 36 19 SSW 1015,3 13
23.04.2018 17:00:00 9,6 8,2 29 16 36 19 SSW 1015,5 15
23.04.2018 16:00:00 9,6 8,2 29 16 32 18 SSW 1015,9 15
23.04.2018 15:00:00 9,4 8,1 25 14 32 18 SW 1016,2 14
23.04.2018 14:00:00 9,2 8,0 29 16 32 18 SW 1015,9 10
23.04.2018 13:00:00 9,3 7,7 29 16 32 18 SW 1015,8 16
23.04.2018 12:00:00 9,1 7,4 29 16 32 18 WSW 1015,5 17
23.04.2018 11:00:00 9,0 7,3 29 16 36 19 WSW 1015,1 17
23.04.2018 10:00:00 9,1 7,2 37 20 36 19 WSW 1014,3 10
23.04.2018 09:00:00 9,1 7,4 29 16 32 18 WSW 1013,9 22
23.04.2018 08:00:00 9,2 7,8 25 14 32 18 WSW 1013,3 22
23.04.2018 07:00:00 9,5 8,0 29 16 36 19 WSW 1012,4 22
23.04.2018 06:00:00 9,7 8,2 34 18 36 19 W 1012,1 10
23.04.2018 05:00:00 9,9 8,3 29 16 36 19 W 1011,7 22
23.04.2018 04:00:00 10,3 8,3 29 16 40 21 W 1011,4 23
23.04.2018 03:00:00 10,9 8,1 36 19 43 23 WSW 1010,8 32
23.04.2018 02:00:00 11,4 8,0 42 23 40 21 WSW 1010,3 10
23.04.2018 01:00:00 11,3 9,3 29 16 36 19 WSW 1009,9 17
23.04.2018 00:00:00 10,1 8,9 35 19 32 18 WSW 1009,8 8
22.04.2018 23:00:00 10,6 9,0 42 23 43 23 WSW 1009,2 9
22.04.2018 22:00:00 10,8 8,8 41 22 47 25 SW 1008,7 10
22.04.2018 21:00:00 11,4 8,5 52 28 50 27 SW 1007,4 10
22.04.2018 20:00:00 11,5 8,1 43 23 47 25 SSW 1007,3 13
22.04.2018 19:00:00 12,5 8,2 40 21 47 25 SSW 1007,2 14
22.04.2018 18:00:00 12,0 9,3 36 19 40 21 SSW 1007,7 13
22.04.2018 17:00:00 12,5 9,7 32 18 40 21 SSW 1008,2 12
22.04.2018 16:00:00 13,0 10,0 34 18 36 19 SSW 1008,8 9
22.04.2018 15:00:00 14,3 11,0 29 16 32 18 SSW 1009,2 6
22.04.2018 14:00:00 13,9 10,2 35 19 36 19 S 1009,3 10
22.04.2018 13:00:00 12,6 9,9 35 19 40 21 SSE 1009,7 9
22.04.2018 12:00:00 11,6 9,2 42 23 43 23 SSE 1010,3 10
22.04.2018 11:00:00 12,3 9,2 34 18 36 19 SE 1010,5 10
22.04.2018 10:00:00 11,5 8,5 35 19 36 19 ESE 1011,1 10
22.04.2018 09:00:00 12,2 8,4 29 16 25 14 ESE 1011,6 10
22.04.2018 08:00:00 12,3 8,4 21 11 25 14 SE 1012,3 10
22.04.2018 07:00:00 12,5 8,6 18 10 36 19 SSE 1013,0 15
22.04.2018 06:00:00 11,7 7,6 34 18 36 19 ESE 1013,6 10
22.04.2018 05:00:00 11,8 7,7 32 18 40 21 ESE 1013,7 26
22.04.2018 04:00:00 11,4 8,0 36 19 40 21 ESE 1014,4 31
22.04.2018 03:00:00 12,2 8,7 44 24 43 23 E 1015,2 10
22.04.2018 02:00:00 11,8 8,5 44 24 43 23 E 1015,8 10
22.04.2018 01:00:00 12,3 8,5 46 25 43 23 E 1016,0 10
22.04.2018 00:00:00 13,3 8,5 44 24 43 23 E 1017,2 10
21.04.2018 23:00:00 12,1 8,0 41 22 40 21 ENE 1017,7 10
21.04.2018 22:00:00 12,7 7,7 39 21 36 19 ENE 1018,5 10
21.04.2018 21:00:00 12,8 7,6 35 19 32 18 ENE 1018,6 10
21.04.2018 20:00:00 13,5 7,5 29 16 29 16 ENE 1018,9 35
21.04.2018 19:00:00 12,5 7,7 25 14 32 18 ENE 1019,5 38
21.04.2018 18:00:00 12,2 7,9 25 14 32 18 ENE 1020,2 36
21.04.2018 17:00:00 11,4 7,4 29 16 32 18 ENE 1020,8 25
21.04.2018 16:00:00 10,6 7,2 29 16 32 18 NE 1021,7 30
21.04.2018 15:00:00 10,4 8,0 29 16 29 16 NE 1022,4 10
21.04.2018 14:00:00 9,9 8,2 24 13 25 14 NE 1022,8 10
21.04.2018 13:00:00 9,8 8,0 28 15 25 14 NE 1023,3 10
21.04.2018 12:00:00 9,8 8,1 24 13 25 14 NE 1023,8 10
21.04.2018 11:00:00 9,6 8,0 24 13 25 14 NE 1023,8 10
21.04.2018 10:00:00 9,1 8,0 24 13 29 16 NE 1023,8 10
21.04.2018 09:00:00 9,1 8,0 31 17 29 16 NNE 1023,6 10
21.04.2018 08:00:00 9,2 8,1 22 12 22 12 NNE 1023,5 10
21.04.2018 07:00:00 9,2 8,2 14 8 18 10 NE 1023,1 19
21.04.2018 06:00:00 8,7 8,0 14 8 22 12 NNE 1023,0 14
21.04.2018 05:00:00 8,9 8,0 18 10 25 14 NNE 1022,9 15
21.04.2018 04:00:00 8,7 7,8 18 10 25 14 NNE 1023,1 13
21.04.2018 03:00:00 8,7 7,8 14 8 22 12 NNE 1023,5 17
21.04.2018 02:00:00 8,7 7,8 16 9 18 10 N 1023,7 10
21.04.2018 01:00:00 9,1 7,9 13 7 22 12 NNW 1023,7 10
21.04.2018 00:00:00 9,2 7,9 11 6 22 12 N 1023,6 9
20.04.2018 23:00:00 9,6 8,0 13 7 18 10 N 1023,6 10
20.04.2018 22:00:00 9,8 8,1 14 8 22 12 N 1023,6 10
20.04.2018 21:00:00 10,1 8,2 18 10 25 14 N 1023,3 8
20.04.2018 20:00:00 10,1 8,3 18 10 29 16 N 1022,9 7
20.04.2018 19:00:00 9,7 7,6 16 9 22 12 NW 1022,8 5
20.04.2018 18:00:00 9,8 7,8 14 8 22 12 WNW 1022,9 5
20.04.2018 17:00:00 9,8 7,4 14 8 22 12 NW 1022,7 7
20.04.2018 16:00:00 11,3 8,2 14 8 18 10 NW 1022,7 7
20.04.2018 15:00:00 11,1 8,7 11 6 18 10 W 1022,9 8
20.04.2018 14:00:00 11,1 8,4 18 10 25 14 WSW 1023,0 8
20.04.2018 13:00:00 11,1 8,4 18 10 22 12 SW 1022,8 10
20.04.2018 12:00:00 12,6 8,4 18 10 22 12 WSW 1022,6 10
20.04.2018 11:00:00 12,7 8,9 21 11 22 12 WSW 1022,5 6
20.04.2018 10:00:00 11,6 8,4 24 13 29 16 SW 1022,2 5
20.04.2018 09:00:00 15,5 9,1 15 8 18 10 SW 1021,9 10
20.04.2018 08:00:00 13,7 8,7 14 8 22 12 SW 1022,0 7
20.04.2018 07:00:00 11,8 8,5 14 8 18 10 SW 1021,8 4,7
20.04.2018 06:00:00 11,6 8,1 22 12 25 14 - 1021,8 4,8
20.04.2018 05:00:00 13,1 8,5 22 12 29 16 SW 1021,9 5
20.04.2018 04:00:00 15,2 8,4 21 11 25 14 S 1022,2 8
20.04.2018 03:00:00 14,2 7,6 22 12 25 14 S 1022,5 10
20.04.2018 02:00:00 17,5 7,7 16 9 18 10 SE 1022,9 10
20.04.2018 01:00:00 14,4 7,4 18 10 22 12 ESE 1023,2 10
20.04.2018 00:00:00 15,4 7,5 18 10 22 12 E 1023,2 11
19.04.2018 23:00:00 15,2 7,1 18 10 22 12 E 1023,5 11
19.04.2018 22:00:00 15,9 7,4 22 12 22 12 ENE 1023,8 10
19.04.2018 21:00:00 18,5 6,3 14 8 18 10 ENE 1023,4 15
19.04.2018 20:00:00 19,5 6,6 11 6 14 8 E 1023,4 13
19.04.2018 19:00:00 16,1 8,2 9 5 11 6 E 1023,8 10
19.04.2018 18:00:00 20,0 7,9 13 7 18 10 S 1024,2 10
19.04.2018 17:00:00 20,3 7,5 21 11 18 10 ESE 1024,3 10
19.04.2018 16:00:00 19,3 7,7 18 10 36 19 SE 1024,8 10
19.04.2018 15:00:00 19,0 8,8 29 16 25 14 SE 1025,0 10
19.04.2018 14:00:00 17,1 8,6 28 15 25 14 SE 1025,1 10
19.04.2018 13:00:00 15,9 8,4 31 17 32 18 SE 1025,4 10
19.04.2018 12:00:00 14,6 8,1 37 20 36 19 SE 1025,5 10
19.04.2018 11:00:00 14,0 7,6 44 24 40 21 SE 1025,4 10
19.04.2018 10:00:00 13,8 7,8 42 23 40 21 SE 1025,5 10

tt = Température de l'air
td = dewpoint
ff = Vitesse du vent
fx = gusts
dd = Direction du vent
ppp = reduced air pressure
vv = visibility

stations d'obs. à proximité